Bookmark and Share
Track history (hours):
 

Alexander 3

Last reported at 2014-Apr-24 10:33 UTC. Time now 2014-Apr-24 11:22 UTC.
Position N 37°58' E 023°34'.

Length 38 m; draft 5.6 m.

Type: Tug. MMSI: 240733000.

NotesDate/timePositionNaut miles runAvg speedWind from/ knotsBaromVisibWave heightAir tempDewpointWater temp
2014-Apr-24 10:33N 37°58' E 023°34'0 0.0
2014-Apr-24 09:33N 37°58' E 023°34'0 0.0
2014-Apr-24 08:33N 37°58' E 023°34'0 0.0
2014-Apr-24 07:34N 37°58' E 023°34'0 0.0
2014-Apr-24 06:33N 37°58' E 023°34'1 1.2
2014-Apr-24 05:33N 37°57' E 023°35'2 1.7
2014-Apr-24 04:34N 37°56' E 023°36'1 0.8
2014-Apr-24 03:33N 37°56' E 023°37'0 0.0
2014-Apr-24 02:34N 37°56' E 023°37'2 0.1
2014-Apr-23 11:34N 37°57' E 023°35'2 1.7
2014-Apr-23 10:33N 37°56' E 023°37'1 0.9
2014-Apr-23 09:33N 37°57' E 023°38'0 0.0
2014-Apr-23 08:33N 37°57' E 023°38'0 0.0
2014-Apr-23 07:33N 37°57' E 023°38'2 1.9
2014-Apr-23 06:33N 37°57' E 023°36'0 0.0
2014-Apr-23 05:33N 37°57' E 023°36'1 0.7
2014-Apr-23 04:33N 37°57' E 023°35'2 2.0
2014-Apr-23 03:33N 37°56' E 023°37'0 0.0
2014-Apr-23 02:33N 37°56' E 023°37'0 0.0
2014-Apr-22 15:04N 37°56' E 023°37'3 6.2
2014-Apr-22 14:33N 37°55' E 023°34'8 6.4
2014-Apr-22 13:15N 37°56' E 023°23'2 2.3
2014-Apr-22 12:20N 37°58' E 023°23'5 6.7
2014-Apr-22 11:33N 37°53' E 023°24'9 8.9
2014-Apr-22 10:33N 37°56' E 023°34'2 1.8
2014-Apr-22 09:33N 37°57' E 023°36'0 0.0
2014-Apr-22 08:33N 37°57' E 023°36'0 0.4
2014-Apr-22 07:33N 37°57' E 023°36'0 0.0
2014-Apr-22 06:33N 37°57' E 023°36'2 2.3
2014-Apr-22 05:33N 37°55' E 023°35'3 2.6
2014-Apr-22 04:33N 37°58' E 023°36'2 1.7
2014-Apr-22 03:33N 37°56' E 023°37'0 0.0
2014-Apr-22 02:33N 37°56' E 023°37'0 0.0
2014-Apr-21 11:33N 37°56' E 023°37'2 1.5
2014-Apr-21 10:33N 37°57' E 023°36'0 0.0
2014-Apr-21 09:33N 37°57' E 023°36'0 0.0
2014-Apr-21 08:33N 37°57' E 023°36'0 0.0
2014-Apr-21 07:33N 37°57' E 023°36'0 0.0
2014-Apr-21 06:33N 37°57' E 023°36'2 1.8
2014-Apr-21 05:33N 37°56' E 023°35'1 1.2
2014-Apr-21 04:33N 37°57' E 023°36'1 1.3
2014-Apr-21 03:33N 37°56' E 023°37'0 0.0
2014-Apr-21 02:33N 37°56' E 023°37'  
2014-Apr-18 13:33N 37°58' E 023°33'4 4.1
2014-Apr-18 12:33N 38°02' E 023°32'0 0.3
2014-Apr-18 11:29N 38°02' E 023°32'0 0.1
2014-Apr-18 10:33N 38°02' E 023°33'5 5.4
2014-Apr-18 09:32N 37°57' E 023°36'0 0.0
2014-Apr-18 08:33N 37°57' E 023°36'0 0.0
2014-Apr-18 07:33N 37°57' E 023°36'1 0.7
2014-Apr-18 06:33N 37°57' E 023°35'0 0.1
2014-Apr-18 05:33N 37°57' E 023°35'2 1.9
2014-Apr-18 04:32N 37°56' E 023°37'0 0.0
2014-Apr-18 03:31N 37°56' E 023°37'0 0.0
2014-Apr-18 02:33N 37°56' E 023°37'1 0.1
2014-Apr-17 11:34N 37°57' E 023°36'0 0.1
2014-Apr-17 10:33N 37°57' E 023°36'0 0.0
2014-Apr-17 09:33N 37°57' E 023°36'0 0.0
2014-Apr-17 08:33N 37°57' E 023°36'0 0.0
2014-Apr-17 07:33N 37°57' E 023°36'0 0.0
2014-Apr-17 06:33N 37°57' E 023°36'1 0.6
2014-Apr-17 05:33N 37°58' E 023°36'2 1.5
2014-Apr-17 04:33N 37°56' E 023°36'1 1.3
2014-Apr-17 03:33N 37°57' E 023°35'2 1.8
2014-Apr-17 02:33N 37°56' E 023°37'0 0.0
2014-Apr-16 17:33N 37°56' E 023°37'0 0.0
2014-Apr-16 16:33N 37°56' E 023°37'1 1.5
2014-Apr-16 15:33N 37°57' E 023°37'0 0.0
2014-Apr-16 14:33N 37°57' E 023°37'0 0.0
2014-Apr-16 13:33N 37°57' E 023°37'0 0.0
2014-Apr-16 12:33N 37°57' E 023°37'0 0.0
2014-Apr-16 11:33N 37°57' E 023°37'1 1.0
2014-Apr-16 10:33N 37°57' E 023°35'0 0.4
2014-Apr-16 09:34N 37°57' E 023°36'0 0.1
2014-Apr-16 08:33N 37°57' E 023°36'2 1.8
2014-Apr-16 07:33N 37°58' E 023°34'0 0.0
2014-Apr-16 06:32N 37°58' E 023°34'1 1.1
2014-Apr-16 05:34N 37°57' E 023°35'1 1.5
2014-Apr-16 04:33N 37°56' E 023°35'2 1.8
2014-Apr-16 03:33N 37°56' E 023°37'0 0.0
2014-Apr-16 02:33N 37°56' E 023°37'0 0.0
2014-Apr-16 01:33N 37°56' E 023°37'0 0.0
2014-Apr-16 00:33N 37°56' E 023°37'0 0.0
2014-Apr-15 23:33N 37°56' E 023°37'0 0.0
2014-Apr-15 22:33N 37°56' E 023°37'8 3.7
2014-Apr-15 20:22N 38°02' E 023°30'0 0.0
2014-Apr-15 17:34N 38°02' E 023°30'0 0.0
2014-Apr-15 16:19N 38°02' E 023°30'0 0.0
2014-Apr-15 15:27N 38°02' E 023°30'0 0.0
2014-Apr-15 12:33N 38°02' E 023°30'0 0.0
2014-Apr-15 10:30N 38°02' E 023°30'0 0.0
2014-Apr-15 02:33N 38°02' E 023°30'0 0.0
2014-Apr-14 18:31N 38°02' E 023°30'0 0.0
2014-Apr-14 15:29N 38°02' E 023°30'  

Dump ship's entire track history

sailing weather and tide predictions

Alexander 3 — SW6137 — position and weather